This demonstration page uses our WeatherBlox Daily Observations layout. Learn more.

Left ArrowRight Arrow

36.19886, -115.1175

Hourly Observations for October 23, 2020

Temp ( °F °C ) Dew Point ( °F °C ) Humidity (%) Winds ( mph kmh ) Pressure ( in mb ) Visibility ( mi km ) Precip ( " mm )
12:53 am 00:53 Clear 69 20.6 24 -4.4 18 18 NNW 5 7 29.82 1010 10 16 0.00 0.00
1:53 am 01:53 Clear 69 20.6 24 -4.4 18 18 ESE 5 7 29.84 1010 10 16 0.00 0.00
2:53 am 02:53 Clear 68 20 27 -2.8 21 21 WSW 5 7 29.86 1011 10 16 0.00 0.00
3:53 am 03:53 Clear 64 17.8 27 -2.8 25 25 SW 5 7 29.86 1011 10 16 0.00 0.00
4:53 am 04:53 Clear 64 17.8 27 -2.8 25 25 W 6 9 29.88 1012 10 16 0.00 0.00
5:53 am 05:53 Clear 59 15 27 -2.8 29 29 NW 5 7 29.92 1013 10 16 0.00 0.00
6:53 am 06:53 Clear 62 16.7 28 -2.2 28 28 Calm 29.95 1014 10 16 0.00 0.00
7:53 am 07:53 Sunny 61 16.1 28 -2.2 29 29 WNW 5 7 29.98 1015 10 16 0.00 0.00
8:53 am 08:53 Sunny 65 18.3 25 -3.9 22 22 S 3 6 30.01 1016 10 16 0.00 0.00
9:53 am 09:53 Sunny 67 19.4 24 -4.4 20 20 S 5 7 30.01 1016 10 16 0.00 0.00
10:53 am 10:53 Sunny 71 21.7 22 -5.6 16 16 ESE 5 7 30.01 1016 10 16 0.00 0.00
11:53 am 11:53 Sunny 74 23.3 20 -6.7 13 13 SE 8 13 29.99 1016 10 16 0.00 0.00
12:53 pm 12:53 Sunny 75 23.9 20 -6.7 12 12 SE 8 13 29.96 1015 10 16 0.00 0.00
1:53 pm 13:53 Sunny 76 24.4 22 -5.6 13 13 SSE 3 6 29.93 1013 10 16 0.00 0.00
2:53 pm 14:53 Sunny 77 25 25 -3.9 14 14 VRB 6 9 29.90 1013 10 16 0.00 0.00
3:53 pm 15:53 Sunny 78 25.6 25 -3.9 14 14 Calm 29.90 1012 10 16 0.00 0.00
4:53 pm 16:53 Sunny 78 25.6 26 -3.3 15 15 Calm 29.89 1012 10 16 0.00 0.00
5:53 pm 17:53 Sunny 76 24.4 26 -3.3 16 16 Calm 29.90 1013 10 16 0.00 0.00
6:53 pm 18:53 Clear 75 23.9 26 -3.3 16 16 Calm 29.91 1013 10 16 0.00 0.00
7:53 pm 19:53 Clear 73 22.8 30 -1.1 20 20 WNW 3 6 29.92 1013 10 16 0.00 0.00
8:53 pm 20:53 Clear 70 21.1 30 -1.1 23 23 WNW 6 9 29.92 1013 10 16 0.00 0.00
9:53 pm 21:53 Clear 69 20.6 30 -1.1 23 23 W 6 9 29.93 1014 10 16 0.00 0.00
10:53 pm 22:53 Clear 65 18.3 30 -1.1 27 27 VRB 3 6 29.93 1014 10 16 0.00 0.00
11:53 pm 23:53 Clear 63 17.2 28 -2.2 27 27 NNW 5 7 29.93 1014 10 16 0.00 0.00

Powered by AerisWeather